This demonstration page uses our WeatherBlox Daily Observations layout. Learn more.

Left ArrowRight Arrow

Hourly Observations for May 19, 2017

Temp ( °F °C ) Dew Point ( °F °C ) Humidity (%) Winds ( mph kmh ) Pressure ( in mb ) Visibility ( mi km ) Precip ( " mm )
12:15 am 00:15 Cloudy 51 10.7 49 9.7 94 94 ENE 23 37 29.94 1014 10 16 N/A
12:35 am 00:35 Cloudy 51 10.7 49 9.7 94 94 NE 16 26 29.94 1014 10 16 N/A
12:55 am 00:55 Cloudy 51 10.5 49 9.7 95 95 NE 14 22 29.94 1014 10 16 N/A
1:15 am 01:15 Cloudy 51 10.5 49 9.7 95 95 NE 17 28 29.94 1014 10 16 N/A
1:35 am 01:35 Cloudy 51 10.5 49 9.6 94 94 NE 15 24 29.94 1014 10 16 N/A
1:55 am 01:55 Cloudy 51 10.5 49 9.5 94 94 ENE 16 26 29.94 1014 10 16 N/A
2:15 am 02:15 Cloudy 51 10.3 49 9.4 94 94 NE 16 26 29.94 1014 10 16 N/A
2:35 am 02:35 Cloudy 50 10.2 49 9.4 95 95 NE 17 28 29.94 1014 7 11 N/A
2:55 am 02:55 Cloudy 50 10.1 49 9.2 94 94 NE 21 33 29.94 1014 10 16 N/A
3:15 am 03:15 Cloudy 50 10 49 9.2 95 95 NE 17 28 29.94 1014 10 16 N/A
3:35 am 03:35 Cloudy 50 10 49 9.2 95 95 NNE 16 26 29.94 1014 10 16 N/A
3:55 am 03:55 Cloudy 49 9.7 48 9 95 95 NE 14 22 29.94 1014 7 11 N/A
4:15 am 04:15 Cloudy 49 9.7 48 9 95 95 NE 13 20 29.94 1014 10 16 N/A
4:35 am 04:35 Cloudy 49 9.7 48 8.8 94 94 NNE 13 20 29.94 1014 10 16 N/A
4:55 am 04:55 Cloudy 49 9.7 48 8.7 94 94 NNE 14 22 29.97 1015 10 16 N/A
5:15 am 05:15 Cloudy 49 9.6 47 8.5 93 93 NNE 15 24 29.97 1015 10 16 N/A
5:35 am 05:35 Cloudy 49 9.5 47 8.3 92 92 NNE 17 28 29.97 1015 10 16 N/A
5:55 am 05:55 Cloudy 49 9.3 47 8.3 94 94 NNE 14 22 29.97 1015 7 11 N/A
6:15 am 06:15 Cloudy 49 9.3 47 8.2 93 93 NNE 18 30 29.97 1015 10 16 N/A
6:35 am 06:35 Cloudy 49 9.3 47 8.2 93 93 NE 13 20 30.00 1016 10 16 N/A
6:55 am 06:55 Cloudy 49 9.3 47 8.2 93 93 NE 18 30 29.97 1015 10 16 N/A
7:15 am 07:15 Cloudy 49 9.2 47 8.2 94 94 NE 18 30 29.97 1015 10 16 N/A
7:35 am 07:35 Cloudy 48 9 46 8 94 94 NE 22 35 29.97 1015 10 16 N/A
7:55 am 07:55 Cloudy 48 9.1 47 8.1 94 94 NE 16 26 29.97 1015 10 16 N/A
8:15 am 08:15 Cloudy 49 9.2 46 8 92 92 NE 21 33 29.97 1015 10 16 N/A
8:35 am 08:35 Cloudy 49 9.3 46 8 92 92 NE 20 31 29.94 1014 10 16 N/A
8:55 am 08:55 Cloudy 49 9.7 46 8 89 89 NE 22 35 29.94 1014 10 16 N/A
9:15 am 09:15 Cloudy 49 9.6 46 7.8 89 89 NE 21 33 29.97 1015 10 16 N/A
9:35 am 09:35 Cloudy 49 9.6 46 7.8 89 89 NE 18 30 29.97 1015 10 16 N/A
9:55 am 09:55 Cloudy 49 9.2 46 8 92 92 ENE 16 26 30.00 1016 10 16 N/A
10:15 am 10:15 Cloudy 49 9.3 46 7.7 90 90 ENE 18 30 30.06 1018 10 16 N/A
10:35 am 10:35 Cloudy 49 9.2 46 7.8 91 91 ENE 18 30 30.06 1018 10 16 N/A
10:55 am 10:55 Cloudy with Nearby Thunderstorms 49 9.4 46 8 91 91 ENE 21 33 30.00 1016 10 16 N/A
11:15 am 11:15 Cloudy 49 9.6 47 8.1 90 90 NE 20 31 30.00 1016 10 16 N/A
11:35 am 11:35 Cloudy 48 9 46 7.6 91 91 NNE 17 28 30.03 1017 10 16 N/A
11:55 am 11:55 Cloudy 48 9 46 8 94 94 NE 17 28 30.03 1017 10 16 N/A
12:15 pm 12:15 Cloudy with Light Rain 49 9.2 46 8 92 92 NNE 21 33 29.97 1015 10 16 N/A
12:35 pm 12:35 Cloudy with Light Rain 49 9.2 47 8.1 93 93 NNE 20 31 29.97 1015 10 16 0.01 0.25
12:55 pm 12:55 Cloudy 50 9.9 47 8.1 89 89 N 23 37 29.94 1014 10 16 0.01 0.25
1:15 pm 13:15 Cloudy 49 9.7 47 8.2 90 90 NNE 24 39 29.94 1014 10 16 N/A
1:35 pm 13:35 Cloudy 49 9.7 46 8 89 89 NNE 25 41 29.91 1013 10 16 N/A
1:55 pm 13:55 Cloudy 50 10.2 47 8.2 88 88 NNE 26 43 29.91 1013 10 16 N/A
2:15 pm 14:15 Cloudy with Light Rain 50 9.8 46 7.8 87 87 N 17 28 29.97 1015 10 16 N/A
2:35 pm 14:35 Cloudy with Light Rain 49 9.5 46 7.8 89 89 NNE 22 35 29.94 1014 10 16 N/A
2:55 pm 14:55 Cloudy with Drizzle 49 9.5 46 7.7 89 89 NE 14 22 30.00 1016 10 16 N/A
3:15 pm 15:15 Cloudy with Rain 48 9.1 46 7.8 92 92 NNE 23 37 29.97 1015 3 4 0.06 1.52
3:35 pm 15:35 Cloudy with Light Rain 48 9.1 46 7.8 92 92 NNE 23 37 29.97 1015 10 16 0.07 1.78
3:55 pm 15:55 Cloudy 48 9 46 7.7 92 92 NNE 21 33 29.94 1014 10 16 0.07 1.78
4:15 pm 16:15 Cloudy 48 8.7 46 7.5 92 92 NNE 23 37 29.94 1014 10 16 N/A
4:35 pm 16:35 Cloudy with Light Rain 48 9 46 7.6 91 91 NNE 22 35 29.94 1014 10 16 N/A
4:55 pm 16:55 Cloudy with Light Rain 48 9 46 7.5 90 90 NNE 13 20 29.94 1014 10 16 N/A
5:15 pm 17:15 Cloudy with Light Rain 48 9 46 7.6 91 91 NE 16 26 29.97 1015 10 16 0.01 0.25
5:35 pm 17:35 Cloudy with Rain 48 9 46 7.8 92 92 NNE 15 24 29.97 1015 5 8 0.06 1.52
5:55 pm 17:55 Cloudy with Rain 48 8.8 46 7.7 93 93 NNE 18 30 30.00 1016 4 6 0.13 3.30
6:15 pm 18:15 Cloudy with Rain 47 8.6 46 7.6 94 94 NNE 18 30 30.00 1016 7 11 0.04 1.02
6:35 pm 18:35 Cloudy with Rain 48 8.7 46 7.8 94 94 NNE 22 35 29.94 1014 4 6 0.09 2.29
6:55 pm 18:55 Cloudy with Light Rain 48 8.7 46 8 95 95 NNE 21 33 29.94 1014 10 16 0.09 2.29
7:15 pm 19:15 Cloudy 47 8.6 46 7.6 94 94 NNE 23 37 29.94 1014 10 16 N/A
7:35 pm 19:35 Cloudy 47 8.5 46 7.5 94 94 NNE 20 31 29.97 1015 10 16 N/A
7:55 pm 19:55 Cloudy 47 8.3 45 7 92 92 NNE 23 37 29.91 1013 7 11 N/A
8:15 pm 20:15 Cloudy 47 8.2 45 7 92 92 NNE 14 22 29.97 1015 10 16 N/A
8:35 pm 20:35 Cloudy with Drizzle 46 8 44 6.8 92 92 NNE 18 30 29.97 1015 7 11 N/A
8:55 pm 20:55 Cloudy with Light Rain 46 7.8 44 6.7 93 93 NNE 17 28 29.97 1015 4 6 N/A
9:15 pm 21:15 Cloudy with Mist and Fog 46 7.6 44 6.7 94 94 NNE 18 30 29.97 1015 4 6 N/A
9:35 pm 21:35 Cloudy 46 7.5 44 6.5 93 93 NNE 17 28 29.97 1015 7 11 N/A
9:55 pm 21:55 Cloudy 45 7.3 44 6.5 95 95 NNE 18 30 29.97 1015 7 11 N/A
10:15 pm 22:15 Cloudy 45 7.3 44 6.5 95 95 NNE 18 30 29.97 1015 10 16 N/A
10:35 pm 22:35 Cloudy with Drizzle 45 7.2 43 6.3 94 94 NNE 20 31 29.97 1015 10 16 N/A
10:55 pm 22:55 Cloudy with Light Rain 45 7.1 43 6.2 94 94 NNE 20 31 29.97 1015 7 11 0.01 0.25
11:15 pm 23:15 Cloudy with Drizzle 45 7 43 6.1 94 94 N 18 30 29.97 1015 5 8 N/A
11:35 pm 23:35 Cloudy 45 7 43 6 93 93 N 15 24 30.00 1016 10 16 N/A
11:55 pm 23:55 Cloudy with Mist and Fog 44 6.7 42 5.8 94 94 N 21 33 29.97 1015 5 8 N/A

Powered by AerisWeather